Regional Weather Roundup
Issued by NWS

Home | Current Version | Previous Version | Graphics & Text | Print | Product List | Glossary On
Versions: 1 2 3 4 5 6 7 8 9 10 11 12 13 14 15 16 17 18 19 20 21 22 23 24 25 26 27 28 29 30 31 32 33 34 35 36 37 38 39 40 41 42 43 44 45 46 47 48 49 50
000
ASUS43 KIND 290409
RWRIN

WEATHER ROUNDUP FOR INDIANA
NATIONAL WEATHER SERVICE INDIANAPOLIS IN
1200 AM EDT THU SEP 29 2016

NOTE: "FAIR" INDICATES FEW OR NO CLOUDS BELOW 12,000 FEET WITH NO
SIGNIFICANT WEATHER AND/OR OBSTRUCTIONS TO VISIBILITY.

* - STATION DOES NOT REPORT WEATHER SUCH AS PRECIPITATION OR FOG.

+ - STATION NOT QUALITY CONTROLLED BY THE NATIONAL WEATHER SERVICE.
    USE DATA WITH CAUTION...ESPECIALLY DEWPOINT AND RELATIVE
    HUMIDITY OBSERVATIONS.

INZ001>003-010>013-019-020-290500-
NORTHWEST INDIANA

CITY           SKY/WX    TMP DP  RH WIND       PRES   REMARKS
GARY /AIRPORT/ CLOUDY    63  55  77 NE12G21   30.05S
KNOX *+        CLOUDY    54  37  54 N9        30.01S
LA PORTE +     DRIZZLE   58  57  96 N12       30.03S
MICHIGAN CITY+ CLOUDY    57  54  88 MISG      30.04S
MONTICELLO +   LGT RAIN  54  48  82 N5        30.00S
RENSSELAER +   MOCLDY    55  54  94 N8        30.02R
VALPARAISO     LGT RAIN  57  52  83 N5        30.03S

$$

LMZ046-743>745-290500-
SOUTHERN LAKE MICHIGAN

STATION/POSITION TIME  TEMP    WIND        PRES    WAVE
                       AIR SEA DIR/SP/G            HT
                 (UTC) (F)     (DEG/KT/KT) (MB)    (FT)
BURNS HARBOR     0340   62      50/ 19/ 24 1017.3R
MICHIGAN CITY    0340   61      20/ 24/ 26   N/A
5NW MICH CITY    0400   63 66   40/ 21/ 27   N/A     7

$$

INZ004-005-014>016-021>024-290500-
NORTH CENTRAL INDIANA

CITY           SKY/WX    TMP DP  RH WIND       PRES   REMARKS
GOSHEN         RAIN      56  53  90 NE10      30.00R FOG
LOGANSPORT +   CLOUDY    54  52  94 NW6       29.99F
PERU/GRISSOM   MOCLDY    54  53  95 NW3       29.96F
ROCHESTER +    LGT RAIN  55  55 100 N9        29.98F
SOUTH BEND     LGT RAIN  55  54  96 N12       30.03S
WARSAW +       RAIN      54  54 100 NE6       29.99S

$$

INZ006>009-017-018-025>027-290500-
NORTHEAST INDIANA

CITY           SKY/WX    TMP DP  RH WIND       PRES   REMARKS
ANGOLA *+        N/A     55  43  62 NE7       29.99S
AUBURN +       RAIN      54  52  94 N7        29.98S
FORT WAYNE     CLOUDY    54  52  93 NW3       29.98R
HUNTINGTON +   CLOUDY    53  51  95 CALM      29.97S
KENDALLVILLE + LGT RAIN  53  53  99 N7        29.99R

$$

INZ028-029-035-036-043>045-051>053-290500-
WEST CENTRAL INDIANA

CITY           SKY/WX    TMP DP  RH WIND       PRES   REMARKS
CRAWFORDSVL +  CLOUDY    52  52 100 NW7       30.00S
GREENCASTLE +  CLOUDY    54  54 100 NW3       30.01S
LAFAYETTE      NOT AVBL
TERRE HAUTE    MOCLDY    56  50  80 NW8       30.02S

$$

INZ030>032-037>040-046>048-054>057-064-065-290500-
CENTRAL INDIANA

CITY           SKY/WX    TMP DP  RH WIND       PRES   REMARKS
FISHERS *+     CLOUDY    52  52 100 NW3       29.98S
FRANKFORT +    CLOUDY    57  53  85 NW5       30.01S
GREENWOOD *+   CLOUDY    55  54  94 CALM      29.98F
INDIANAPOLIS   CLOUDY    55  51  86 NW9       29.98S
-EAGLE CREEK   CLOUDY    56  52  86 NW9       29.97F
KOKOMO *+      CLOUDY    54  52  93 NW5       29.99S
MARION +       CLOUDY    53  51  94 N3        29.98S
MT COMFORT *+  PTCLDY    52  50  93 W3        29.98S
SHELBYVILLE    MOCLDY    55  51  86 NW5       29.96F
ZIONSVILLE +   CLOUDY    53  51  91 NW3       29.99S

$$

INZ033-034-041-042-049-050-058-059-290500-
EAST CENTRAL INDIANA

CITY           SKY/WX    TMP DP  RH WIND       PRES   REMARKS
MUNCIE         CLOUDY    55  53  93 NW6       29.97R

$$

INZ060-061-067>069-081>083-085>088-290500-
SOUTHWEST INDIANA

CITY           SKY/WX    TMP DP  RH WIND       PRES   REMARKS
EVANSVILLE     CLEAR     55  47  74 W6        30.05S
HUNTINGBURG *+   N/A     52  45  76 NW6       30.03S
WASHINGTON +   CLOUDY    55  50  83 MISG      30.01F

$$

INZ062-063-066-070>080-084-089>092-290500-
SOUTH CENTRAL AND SOUTHEAST INDIANA

CITY           SKY/WX    TMP DP  RH WIND       PRES   REMARKS
BLOOMINGTON    MOCLDY    54  48  80 NW5       30.00S
MADISON *+     MOCLDY    54  52  94 W3        30.00S
NORTH VERNON + CLOUDY   N/A N/A N/A W3        29.98S
SEYMOUR +      CLOUDY    57  50  77 CALM      29.99S

$$




USA.gov is the U.S. government's official web portal to all federal, state and local government web resources and services.